H1 CPF 2 NER 2025 9 17 9 260 01 glonass131 H2 1301901 9131 39155 2025 9 17 0 0 0 2025 9 20 23 45 0 900 1 1 0 0 0 1 H9 10 0 60935 0.00000 0 -6384611.520 -22102901.811 10975653.024 10 0 60935 900.00000 0 -6654116.142 -23252835.898 8028545.918 10 0 60935 1800.00000 0 -6947933.203 -24012187.325 4925035.219 10 0 60935 2700.00000 0 -7209404.285 -24369585.923 1725509.654 10 0 60935 3600.00000 0 -7381765.332 -24327255.410 -1507674.955 10 0 60935 4500.00000 0 -7410792.266 -23900843.795 -4711424.623 10 0 60935 5400.00000 0 -7247350.926 -23118701.995 -7823157.257 10 0 60935 6300.00000 0 -6849740.256 -22020640.062 -10782047.447 10 0 60935 7200.00000 0 -6185726.180 -20656213.405 -13530239.200 10 0 60935 8100.00000 0 -5234176.707 -19082612.026 -16014000.444 10 0 60935 9000.00000 0 -3986226.084 -17362243.323 -18184794.379 10 0 60935 9900.00000 0 -2445916.394 -15560112.404 -20000244.629 10 0 60935 10800.00000 0 -630287.812 -13741112.559 -21424973.859 10 0 60935 11700.00000 0 1431087.137 -11967342.136 -22431298.534 10 0 60935 12600.00000 0 3697105.807 -10295562.464 -22999765.982 10 0 60935 13500.00000 0 6116631.436 -8774904.785 -23119523.672 10 0 60935 14400.00000 0 8630419.162 -7444922.737 -22788514.431 10 0 60935 15300.00000 0 11173390.047 -6334071.452 -22013495.196 10 0 60935 16200.00000 0 13677156.699 -5458675.485 -20809880.620 10 0 60935 17100.00000 0 16072693.949 -4822426.431 -19201416.505 10 0 60935 18000.00000 0 18293042.425 -4416428.301 -17219691.331 10 0 60935 18900.00000 0 20275932.220 -4219785.360 -14903497.270 10 0 60935 19800.00000 0 21966217.860 -4200704.272 -12298054.799 10 0 60935 20700.00000 0 23318024.298 -4318061.003 -9454117.416 10 0 60935 21600.00000 0 24296516.339 -4523363.820 -6426974.989 10 0 60935 22500.00000 0 24879220.068 -4763027.638 -3275375.777 10 0 60935 23400.00000 0 25056843.735 -4980862.651 -60388.409 10 0 60935 24300.00000 0 24833566.569 -5120671.878 3155774.236 10 0 60935 25200.00000 0 24226785.917 -5128848.449 6310947.028 10 0 60935 26100.00000 0 23266335.374 -4956864.097 9344198.294 10 0 60935 27000.00000 0 21993207.995 -4563545.304 12196987.664 10 0 60935 27900.00000 0 20457838.584 -3917042.779 14814275.328 10 0 60935 28800.00000 0 18718016.690 -2996412.733 17145563.100 10 0 60935 29700.00000 0 16836516.428 -1792744.459 19145849.181 10 0 60935 30600.00000 0 14878540.431 -309787.161 20776480.104 10 0 60935 31500.00000 0 12909082.359 1435950.725 22005885.131 10 0 60935 32400.00000 0 10990315.525 3415635.300 22810180.300 10 0 60935 33300.00000 0 9179114.047 5589058.178 23173631.353 10 0 60935 34200.00000 0 7524807.709 7906067.961 23088966.847 10 0 60935 35100.00000 0 6067262.479 10308425.969 22557535.027 10 0 60935 36000.00000 0 4835365.766 12732012.611 21589300.317 10 0 60935 36900.00000 0 3845979.492 15109295.967 20202677.803 10 0 60935 37800.00000 0 3103405.253 17371962.846 18424206.693 10 0 60935 38700.00000 0 2599385.199 19453604.985 16288066.517 10 0 60935 39600.00000 0 2313640.232 21292349.670 13835442.808 10 0 60935 40500.00000 0 2214924.769 22833325.265 11113752.014 10 0 60935 41400.00000 0 2262555.372 24030857.803 8175738.542 10 0 60935 42300.00000 0 2408350.139 24850304.992 5078459.896 10 0 60935 43200.00000 0 2598897.543 25269448.457 1882178.763 10 0 60935 44100.00000 0 2778058.598 25279383.074 -1350816.429 10 0 60935 45000.00000 0 2889595.277 24884863.399 -4557438.746 10 0 60935 45900.00000 0 2879811.850 24104090.316 -7675052.384 10 0 60935 46800.00000 0 2700094.503 22967945.272 -10642718.313 10 0 60935 47700.00000 0 2309238.475 21518703.530 -13402409.160 10 0 60935 48600.00000 0 1675460.803 19808280.788 -15900167.135 10 0 60935 49500.00000 0 778010.345 17896087.921 -18087179.960 10 0 60935 50400.00000 0 -391695.721 15846585.833 -19920751.701 10 0 60935 51300.00000 0 -1829458.974 13726645.337 -21365147.967 10 0 60935 52200.00000 0 -3518237.491 11602825.173 -22392298.033 10 0 60935 53100.00000 0 -5428637.327 9538684.471 -22982339.822 10 0 60935 54000.00000 0 -7519936.741 7592243.808 -23123997.523 10 0 60935 54900.00000 0 -9741599.275 5813701.990 -22814785.317 10 0 60935 55800.00000 0 -12035210.925 4243503.965 -22061034.672 10 0 60935 56700.00000 0 -14336758.847 2910839.598 -20877746.354 10 0 60935 57600.00000 0 -16579154.957 1832634.039 -19288271.909 10 0 60935 58500.00000 0 -18694897.851 1013069.119 -17323832.806 10 0 60935 59400.00000 0 -20618761.341 443652.441 -15022888.444 10 0 60935 60300.00000 0 -22290397.406 103827.569 -12430367.005 10 0 60935 61200.00000 0 -23656745.540 -37903.848 -9596775.591 10 0 60935 62100.00000 0 -24674149.286 -22398.490 -6577208.037 10 0 60935 63000.00000 0 -25310093.407 102104.405 -3430270.394 10 0 60935 63900.00000 0 -25544491.409 282265.872 -216945.324 10 0 60935 64800.00000 0 -25370472.010 462139.869 3000582.680 10 0 60935 65700.00000 0 -24794634.088 585770.429 6160119.014 10 0 60935 66600.00000 0 -23836761.464 599784.394 9200645.472 10 0 60935 67500.00000 0 -22529011.009 455871.542 12063479.889 10 0 60935 68400.00000 0 -20914608.790 113049.082 14693388.187 10 0 60935 69300.00000 0 -19046108.767 -460383.289 17039629.150 10 0 60935 70200.00000 0 -16983285.923 -1285278.724 19056913.738 10 0 60935 71100.00000 0 -14790750.138 -2370533.884 20706262.366 10 0 60935 72000.00000 0 -12535378.166 -3712481.410 21955745.331 10 0 60935 72900.00000 0 -10283668.102 -5294810.441 22781093.472 10 0 60935 73800.00000 0 -8099123.842 -7089020.193 23166168.214 10 0 60935 74700.00000 0 -6039775.892 -9055390.144 23103282.175 10 0 60935 75600.00000 0 -4155939.588 -11144429.436 22593363.790 10 0 60935 76500.00000 0 -2488302.565 -13298748.570 21645961.704 10 0 60935 77400.00000 0 -1066420.416 -15455278.849 20279087.147 10 0 60935 78300.00000 0 92316.708 -17547750.314 18518895.164 10 0 60935 79200.00000 0 983202.661 -19509327.434 16399208.306 10 0 60935 80100.00000 0 1614196.012 -21275294.296 13960889.378 10 0 60935 81000.00000 0 2005362.116 -22785677.827 11251072.880 10 0 60935 81900.00000 0 2187798.315 -23987698.978 8322267.856 10 0 60935 82800.00000 0 2202086.080 -24837947.770 5231347.995 10 0 60935 83700.00000 0 2096334.503 -25304188.825 2038447.722 10 0 60935 84600.00000 0 1923897.619 -25366718.798 -1194214.361 10 0 60935 85500.00000 0 1740862.826 -25019215.703 -4403561.001 10 0 60936 0.00000 0 1603418.321 -24269041.748 -7526905.203 10 0 60936 900.00000 0 1565213.369 -23136984.153 -10503197.828 10 0 60936 1800.00000 0 1674826.337 -21656444.468 -13274242.892 10 0 60936 2700.00000 0 1973450.716 -19872108.550 -15785859.974 10 0 60936 3600.00000 0 2492900.492 -17838154.362 -17988964.362 10 0 60936 4500.00000 0 3254022.046 -15616073.774 -19840543.443 10 0 60936 5400.00000 0 4265582.023 -13272201.629 -21304508.382 10 0 60936 6300.00000 0 5523679.679 -10875057.811 -22352403.498 10 0 60936 7200.00000 0 7011709.202 -8492615.797 -22963959.119 10 0 60936 8100.00000 0 8700873.573 -6189613.782 -23127477.457 10 0 60936 9000.00000 0 10551227.609 -4025021.972 -22840044.872 10 0 60936 9900.00000 0 12513205.126 -2049772.214 -22107567.710 10 0 60936 10800.00000 0 14529564.668 -304844.186 -20944632.722 10 0 60936 11700.00000 0 16537670.685 1180213.536 -19374196.644 10 0 60936 12600.00000 0 18472013.249 2388268.186 -17427112.940 10 0 60936 13500.00000 0 20266859.887 3315055.330 -15141506.800 10 0 60936 14400.00000 0 21858928.133 3969083.897 -12562012.248 10 0 60936 15300.00000 0 23189967.181 4371001.497 -9738887.689 10 0 60936 16200.00000 0 24209141.488 4552450.288 -6727028.219 10 0 60936 17100.00000 0 24875118.018 4554464.678 -3584894.643 10 0 60936 18000.00000 0 25157771.671 4425480.759 -373380.366 10 0 60936 18900.00000 0 25039439.686 4219042.966 2845361.924 10 0 60936 19800.00000 0 24515674.703 3991305.387 6009111.594 10 0 60936 20700.00000 0 23595467.004 3798432.935 9056767.236 10 0 60936 21600.00000 0 22300928.170 3694011.143 11929508.030 10 0 60936 22500.00000 0 20666450.350 3726572.351 14571908.501 10 0 60936 23400.00000 0 18737376.445 3937340.918 16932986.961 10 0 60936 24300.00000 0 16568236.098 4358290.722 18967169.346 10 0 60936 25200.00000 0 14220619.619 5010595.400 20635151.836 10 0 60936 26100.00000 0 11760776.362 5903535.724 21904647.287 10 0 60936 27000.00000 0 9257034.937 7033910.061 22751002.512 10 0 60936 27900.00000 0 6777149.733 8385973.619 23157675.421 10 0 60936 28800.00000 0 4385681.291 9931910.873 23116563.112 10 0 60936 29700.00000 0 2141516.915 11632824.076 22628174.226 10 0 60936 30600.00000 0 95632.604 13440199.735 21701641.232 10 0 60936 31500.00000 0 -1710811.844 15297795.217 20354570.696 10 0 60936 32400.00000 0 -3247965.737 17143870.057 18612732.307 10 0 60936 33300.00000 0 -4498305.881 18913671.664 16509590.095 10 0 60936 34200.00000 0 -5457136.962 20542073.687 14085682.307 10 0 60936 35100.00000 0 -6132551.583 21966257.880 11387859.422 10 0 60936 36000.00000 0 -6544850.012 23128327.252 8468392.852 10 0 60936 36900.00000 0 -6725442.498 23977739.968 5383970.053 10 0 60936 37800.00000 0 -6715279.249 24473459.886 2194594.635 10 0 60936 38700.00000 0 -6562873.772 24585730.695 -1037587.268 10 0 60936 39600.00000 0 -6322003.375 24297395.972 -4249510.786 10 0 60936 40500.00000 0 -6049185.227 23604706.468 -7378440.999 10 0 60936 41400.00000 0 -5801036.783 22517577.850 -10363220.186 10 0 60936 42300.00000 0 -5631634.940 21059285.847 -13145486.880 10 0 60936 43200.00000 0 -5589988.824 19265610.295 -15670840.428 10 0 60936 44100.00000 0 -5717736.304 17183463.614 -17889925.896 10 0 60936 45000.00000 0 -6047164.676 14869061.871 -19759415.993 10 0 60936 45900.00000 0 -6599641.665 12385716.393 -21242869.222 10 0 60936 46800.00000 0 -7384524.833 9801340.301 -22311446.493 10 0 60936 47700.00000 0 -8398596.388 7185776.316 -22944471.819 10 0 60936 48600.00000 0 -9626047.378 4608059.490 -23129826.434 10 0 60936 49500.00000 0 -11039011.362 2133730.614 -22864169.520 10 0 60936 50400.00000 0 -12598623.887 -177686.756 -22152982.547 10 0 60936 51300.00000 0 -14256561.656 -2274940.517 -21010438.066 10 0 60936 52200.00000 0 -15956995.027 -4116942.523 -19459097.362 10 0 60936 53100.00000 0 -17638870.213 -5674222.395 -17529444.817 10 0 60936 54000.00000 0 -19238424.095 -6929884.762 -15259269.938 10 0 60936 54900.00000 0 -20691825.316 -7880033.367 -12692910.780 10 0 60936 55800.00000 0 -21937830.625 -8533648.062 -9880374.975 10 0 60936 56700.00000 0 -22920345.440 -8911923.640 -6876356.611 10 0 60936 57600.00000 0 -23590782.278 -9047101.818 -3739168.824 10 0 60936 58500.00000 0 -23910119.639 -8980848.382 -529613.227 10 0 60936 59400.00000 0 -23850576.897 -8762246.047 2690191.934 10 0 60936 60300.00000 0 -23396836.995 -8445488.824 5858002.712 10 0 60936 61200.00000 0 -22546767.649 -8087375.491 8912637.277 10 0 60936 62100.00000 0 -21311612.432 -7744707.336 11795138.956 10 0 60936 63000.00000 0 -19715644.817 -7471698.680 14449893.642 10 0 60936 63900.00000 0 -17795300.005 -7317507.696 16825681.820 10 0 60936 64800.00000 0 -15597820.334 -7323989.646 18876646.865 10 0 60936 65700.00000 0 -13179469.517 -7523765.403 20563162.897 10 0 60936 66600.00000 0 -10603388.114 -7938685.183 21852587.172 10 0 60936 67500.00000 0 -7937176.918 -8578751.360 22719883.933 10 0 60936 68400.00000 0 -5250305.768 -9441545.826 23148108.633 10 0 60936 69300.00000 0 -2611452.432 -10512186.964 23128743.503 10 0 60936 70200.00000 0 -85879.244 -11763820.063 22661877.687 10 0 60936 71100.00000 0 2267045.994 -13158623.324 21756227.423 10 0 60936 72000.00000 0 4396083.542 -14649290.498 20428994.268 10 0 60936 72900.00000 0 6260017.799 -16180931.397 18705561.904 10 0 60936 73800.00000 0 7829137.128 -17693313.821 16619034.911 10 0 60936 74700.00000 0 9086235.087 -19123355.481 14209625.754 10 0 60936 75600.00000 0 10027090.037 -20407763.196 11523899.359 10 0 60936 76500.00000 0 10660401.515 -21485709.275 8613887.675 10 0 60936 77400.00000 0 11007184.353 -22301432.219 5536089.795 10 0 60936 78300.00000 0 11099644.697 -22806650.933 2350376.135 10 0 60936 79200.00000 0 10979584.312 -22962688.426 -881182.236 10 0 60936 80100.00000 0 10696400.374 -22742212.590 -4095535.580 10 0 60936 81000.00000 0 10304765.871 -22130517.424 -7229903.624 10 0 60936 81900.00000 0 9862090.240 -21126287.526 -10223023.551 10 0 60936 82800.00000 0 9425869.893 -19741810.887 -13016371.050 10 0 60936 83700.00000 0 9051043.549 -18002628.987 -15555328.125 10 0 60936 84600.00000 0 8787467.284 -15946637.709 -17790272.404 10 0 60936 85500.00000 0 8677619.085 -13622676.660 -19677564.523 10 0 60937 0.00000 0 8754632.522 -11088666.937 -21180412.543 10 0 60937 900.00000 0 9040744.664 -8409375.306 -22269596.236 10 0 60937 1800.00000 0 9546224.823 -5653903.557 -22924034.734 10 0 60937 2700.00000 0 10268829.796 -2893005.255 -23131189.433 10 0 60937 3600.00000 0 11193808.024 -196346.906 -22887293.021 10 0 60937 4500.00000 0 12294451.350 2370172.457 -22197402.330 10 0 60937 5400.00000 0 13533169.459 4746930.897 -21075275.523 10 0 60937 6300.00000 0 14863039.890 6882818.371 -19543077.833 10 0 60937 7200.00000 0 16229766.441 8737104.936 -17630923.573 10 0 60937 8100.00000 0 17573961.894 10280866.780 -15376265.192 10 0 60937 9000.00000 0 18833657.816 11497913.625 -12823143.019 10 0 60937 9900.00000 0 19946935.138 12385182.254 -10021311.786 10 0 60937 10800.00000 0 20854564.861 12952583.500 -7025262.097 10 0 60937 11700.00000 0 21502548.463 13222312.806 -3893156.634 10 0 60937 12600.00000 0 21844452.354 13227656.600 -685702.213 10 0 60937 13500.00000 0 21843439.885 13011347.317 2535020.507 10 0 60937 14400.00000 0 21473917.397 12623538.120 5706747.443 10 0 60937 15300.00000 0 20722727.064 12119483.496 8768219.456 10 0 60937 16200.00000 0 19589838.117 11557023.402 11660346.984 10 0 60937 17100.00000 0 18088508.664 10993976.086 14327330.049 10 0 60937 18000.00000 0 16244911.856 10485547.913 16717713.826 10 0 60937 18900.00000 0 14097241.790 10081867.335 18785361.375 10 0 60937 19800.00000 0 11694335.378 9825744.798 20490326.719 10 0 60937 20700.00000 0 9093865.803 9750750.995 21799613.175 10 0 60937 21600.00000 0 6360180.217 9879692.900 22687803.757 10 0 60937 22500.00000 0 3561868.588 10223551.024 23137552.447 10 0 60937 23400.00000 0 769161.516 10780922.756 23139927.217 10 0 60937 24300.00000 0 -1948738.100 11537996.326 22694597.887 10 0 60937 25200.00000 0 -4526281.588 12469058.502 21809864.200 10 0 60937 26100.00000 0 -6904052.332 13537517.392 20502521.962 10 0 60937 27000.00000 0 -9030993.410 14697400.478 18797567.673 10 0 60937 27900.00000 0 -10866292.975 15895268.133 16727744.878 10 0 60937 28800.00000 0 -12380848.557 17072465.018 14332938.337 10 0 60937 29700.00000 0 -13558248.210 18167616.911 11659425.239 10 0 60937 30600.00000 0 -14395226.013 19119269.187 8758995.699 10 0 60937 31500.00000 0 -14901571.076 19868556.029 5687957.980 10 0 60937 32400.00000 0 -15099492.239 20361786.996 2506046.752 10 0 60937 33300.00000 0 -15022463.895 20552839.939 -724744.556 10 0 60937 34200.00000 0 -14713600.899 20405256.553 -3941383.930 10 0 60937 35100.00000 0 -14223631.276 19893948.935 -7081048.339 10 0 60937 36000.00000 0 -13608553.333 19006441.730 -10082372.408 10 0 60937 36900.00000 0 -12927078.012 17743594.316 -12886671.450 10 0 60937 37800.00000 0 -12237967.053 16119769.984 -15439112.457 10 0 60937 38700.00000 0 -11597382.335 14162443.088 -17689807.776 10 0 60937 39600.00000 0 -11056361.350 11911259.785 -19594807.913 10 0 60937 40500.00000 0 -10658528.140 9416591.713 -21116972.434 10 0 60937 41400.00000 0 -10438138.507 6737644.017 -22226700.885 10 0 60937 42300.00000 0 -10418543.414 3940198.260 -22902509.009 10 0 60937 43200.00000 0 -10611135.927 1094086.239 -23131439.254 10 0 60937 44100.00000 0 -11014825.764 -1729498.201 -22909298.379 10 0 60937 45000.00000 0 -11616062.461 -4460735.860 -22240718.786 10 0 60937 45900.00000 0 -12389404.438 -7033852.544 -21139044.064 10 0 60937 46800.00000 0 -13298607.845 -9389611.866 -19626042.823 10 0 60937 47700.00000 0 -14298187.054 -11477527.421 -17731458.332 10 0 60937 48600.00000 0 -15335378.919 -13257703.921 -15492404.662 10 0 60937 49500.00000 0 -16352426.297 -14702233.040 -12952622.789 10 0 60937 50400.00000 0 -17289083.349 -15796088.830 -10161612.668 10 0 60937 51300.00000 0 -18085236.516 -16537488.863 -7173659.355 10 0 60937 52200.00000 0 -18683530.809 -16937709.657 -4046772.880 10 0 60937 53100.00000 0 -19031891.548 -17020367.544 -841562.928 10 0 60937 54000.00000 0 -19085836.622 -16820198.208 2379929.859 10 0 60937 54900.00000 0 -18810483.577 -16381388.405 5555423.800 10 0 60937 55800.00000 0 -18182168.902 -15755531.436 8623585.080 10 0 60937 56700.00000 0 -17189613.106 -14999292.861 11525193.943 10 0 60937 57600.00000 0 -15834584.023 -14171884.211 14204267.247 10 0 60937 58500.00000 0 -14132031.271 -13332449.793 16609117.514 10 0 60937 59400.00000 0 -12109686.262 -12537474.681 18693330.001 10 0 60937 60300.00000 0 -9807143.619 -11838320.773 20416640.935 10 0 60937 61200.00000 0 -7274460.729 -11278992.296 21745701.704 10 0 60937 62100.00000 0 -4570331.343 -10894222.798 22654715.758 10 0 60937 63000.00000 0 -1759906.212 -10707962.594 23125936.905 10 0 60937 63900.00000 0 1087651.953 -10732329.658 23150019.767 10 0 60937 64800.00000 0 3901781.048 -10967068.261 22726215.379 10 0 60937 65700.00000 0 6613194.397 -11399539.334 21862407.171 10 0 60937 66600.00000 0 9156509.358 -12005244.912 20574985.046 10 0 60937 67500.00000 0 11472722.455 -12748867.221 18888557.848 10 0 60937 68400.00000 0 13511429.178 -13585781.568 16835507.277 10 0 60937 69300.00000 0 15232696.119 -14463982.190 14455389.241 10 0 60937 70200.00000 0 16608506.688 -15326342.373 11794191.684 10 0 60937 71100.00000 0 17623718.635 -16113115.249 8903461.008 10 0 60937 72000.00000 0 18276491.497 -16764570.529 5839312.383 10 0 60937 72900.00000 0 18578164.150 -17223655.497 2661342.153 10 0 60937 73800.00000 0 18552585.957 -17438566.489 -568536.748 10 0 60937 74700.00000 0 18234928.466 -17365119.806 -3787313.074 10 0 60937 75600.00000 0 17670027.317 -16968818.866 -6932124.152 10 0 60937 76500.00000 0 16910324.701 -16226526.851 -9941505.182 10 0 60937 77400.00000 0 16013500.508 -15127670.785 -12756614.144 10 0 60937 78300.00000 0 15039894.237 -13674923.208 -15322405.940 10 0 60937 79200.00000 0 14049829.052 -11884330.243 -17588730.362 10 0 60937 80100.00000 0 13100953.817 -9784879.056 -19511330.284 10 0 60937 81000.00000 0 12245717.961 -7417522.196 -21052718.864 10 0 60937 81900.00000 0 11529088.020 -4833699.863 -22182917.557 10 0 60937 82800.00000 0 10986603.791 -2093422.926 -22880040.040 10 0 60937 83700.00000 0 10642856.798 737001.792 -23130710.867 10 0 60937 84600.00000 0 10510455.038 3587507.376 -22930311.481 10 0 60937 85500.00000 0 10589516.634 6386956.562 -22283050.026 10 0 60938 0.00000 0 10867711.869 9065871.877 -21201855.390 10 0 60938 900.00000 0 11320849.738 11559093.401 -19708098.703 10 0 60938 1800.00000 0 11913981.274 13808250.115 -17831151.236 10 0 60938 2700.00000 0 12602971.079 15763947.768 -15607787.264 10 0 60938 3600.00000 0 13336468.136 17387580.400 -13081446.631 10 0 60938 4500.00000 0 14058191.055 18652694.034 -10301372.386 10 0 60938 5400.00000 0 14709430.133 19545848.499 -7321641.580 10 0 60938 6300.00000 0 15231660.192 20066944.840 -4200108.841 10 0 60938 7200.00000 0 15569154.188 20229008.018 -997283.764 10 0 60938 8100.00000 0 15671488.236 20057437.171 2224836.131 10 0 60938 9000.00000 0 15495833.805 19588757.488 5403954.706 10 0 60938 9900.00000 0 15008942.158 18868927.897 8478666.558 10 0 60938 10800.00000 0 14188739.180 17951276.626 11389624.693 10 0 60938 11700.00000 0 13025465.003 16894151.315 14080665.576 10 0 60938 12600.00000 0 11522311.560 15758381.589 16499871.603 10 0 60938 13500.00000 0 9695531.662 14604659.038 18600552.506 10 0 60938 14400.00000 0 7574014.510 13490942.545 20342128.711 10 0 60938 15300.00000 0 5198344.059 12469995.537 21690901.377 10 0 60938 16200.00000 0 2619377.311 11587156.248 22620695.758 10 0 60938 17100.00000 0 -103601.122 10878432.616 23113366.491 10 0 60938 18000.00000 0 -2905074.733 10369000.453 23159155.447 10 0 60938 18900.00000 0 -5715753.393 10072167.346 22756895.026 10 0 60938 19800.00000 0 -8465195.540 9988846.170 21914052.011 10 0 60938 20700.00000 0 -11084488.355 10107561.486 20646609.564 10 0 60938 21600.00000 0 -13508876.966 10404990.506 18978787.541 10 0 60938 22500.00000 0 -15680234.852 10847018.268 16942604.014 10 0 60938 23400.00000 0 -17549273.166 11390265.199 14577283.862 10 0 60938 24300.00000 0 -19077396.475 11984025.097 11928523.310 10 0 60938 25200.00000 0 -20238126.262 12572533.719 9047622.383 10 0 60938 26100.00000 0 -21018030.799 13097473.301 5990500.404 10 0 60938 27000.00000 0 -21417120.394 13500607.328 2816612.620 10 0 60938 27900.00000 0 -21448689.332 13726433.227 -412211.274 10 0 60938 28800.00000 0 -21138609.490 13724738.864 -3632983.456 10 0 60938 29700.00000 0 -20524104.318 13452951.947 -6782804.206 10 0 60938 30600.00000 0 -19652054.617 12878179.687 -9800111.784 10 0 60938 31500.00000 0 -18576908.225 11978848.999 -12625909.211 10 0 60938 32400.00000 0 -17358283.287 10745874.622 -15204941.499 10 0 60938 33300.00000 0 -16058368.394 9183302.975 -17486797.894 10 0 60938 34200.00000 0 -14739231.788 7308402.473 -19426915.377 10 0 60938 35100.00000 0 -13460155.765 5151195.150 -20987462.145 10 0 60938 36000.00000 0 -12275110.966 2753448.850 -22138082.682 10 0 60938 36900.00000 0 -11230478.804 167172.601 -22856489.382 10 0 60938 37800.00000 0 -10363118.977 -2547320.818 -23128889.350 10 0 60938 38700.00000 0 -9698863.513 -5323702.764 -22950238.805 10 0 60938 39600.00000 0 -9251499.938 -8092170.022 -22324321.397 10 0 60938 40500.00000 0 -9022284.642 -10782132.180 -21263650.502 10 0 60938 41400.00000 0 -9000004.579 -13324932.222 -19789199.274 10 0 60938 42300.00000 0 -9161581.867 -15656486.660 -17929965.644 10 0 60938 43200.00000 0 -9473192.850 -17719735.735 -15722382.660 10 0 60938 44100.00000 0 -9891851.586 -19466802.839 -13209587.399 10 0 60938 45000.00000 0 -10367388.510 -20860775.135 -10440564.234 10 0 60938 45900.00000 0 -10844738.907 -21877033.720 -7469180.334 10 0 60938 46800.00000 0 -11266443.426 -22504080.837 -4353132.998 10 0 60938 47700.00000 0 -11575254.705 -22743832.773 -1152829.751 10 0 60938 48600.00000 0 -11716740.406 -22611369.311 2069777.043 10 0 60938 49500.00000 0 -11641773.801 -22134152.996 5252378.891 10 0 60938 50400.00000 0 -11308808.250 -21350753.019 8333500.988 10 0 60938 51300.00000 0 -10685841.371 -20309128.624 11253671.376 10 0 60938 52200.00000 0 -9751987.745 -19064544.405 13956548.451 10 0 60938 53100.00000 0 -8498595.281 -17677204.490 16389986.833 10 0 60938 54000.00000 0 -6929859.025 -16209703.507 18507023.023 10 0 60938 54900.00000 0 -5062906.597 -14724399.238 20266763.819 10 0 60938 55800.00000 0 -2927350.736 -13280814.709 21635162.127 10 0 60938 56700.00000 0 -564325.799 -11933176.043 22585666.734 10 0 60938 57600.00000 0 1974954.207 -10728186.879 23099734.534 10 0 60938 58500.00000 0 4631059.240 -9703130.667 23167195.752 10 0 60938 59400.00000 0 7338554.482 -8884379.109 22786464.918 10 0 60938 60300.00000 0 10028470.991 -8286368.816 21964592.595 10 0 60938 61200.00000 0 12630936.337 -7911089.551 20717155.301 10 0 60938 62100.00000 0 15077858.651 -7748106.725 19067983.654 10 0 60938 63000.00000 0 17305554.441 -7775119.065 17048731.508 10 0 60938 63900.00000 0 19257211.703 -7959030.195 14698291.762 10 0 60938 64800.00000 0 20885085.659 -8257491.253 12062067.588 10 0 60938 65700.00000 0 22152334.495 -8620851.455 9191110.891 10 0 60938 66600.00000 0 23034416.606 -8994435.605 6141143.003 10 0 60938 67500.00000 0 23519988.625 -9321052.849 2971475.540 10 0 60938 68400.00000 0 23611264.241 -9543630.063 -256147.885 10 0 60938 69300.00000 0 23323816.548 -9607856.980 -3478765.972 10 0 60938 70200.00000 0 22685830.601 -9464728.725 -6633445.161 10 0 60938 71100.00000 0 21736836.766 -9072875.066 -9658529.994 10 0 60938 72000.00000 0 20525978.177 -8400574.434 -12494871.662 10 0 60938 72900.00000 0 19109886.213 -7427364.056 -15087008.250 10 0 60938 73800.00000 0 17550255.165 -6145175.033 -17384271.184 10 0 60938 74700.00000 0 15911220.511 -4558941.842 -19341794.032 10 0 60938 75600.00000 0 14256653.686 -2686658.787 -20921402.217 10 0 60938 76500.00000 0 12647489.638 -558879.978 -22092365.134 10 0 60938 77400.00000 0 11139201.604 1782316.209 -22831995.435 10 0 60938 78300.00000 0 9779530.639 4284854.231 -23126083.933 10 0 60938 79200.00000 0 8606565.766 6888614.954 -22969162.406 10 0 60938 80100.00000 0 7647254.943 9527732.608 -22364590.358 10 0 60938 81000.00000 0 6916407.948 12133137.745 -21324465.710 10 0 60938 81900.00000 0 6416230.818 14635238.961 -19869362.951 10 0 60938 82800.00000 0 6136408.509 16966630.770 -18027905.850 10 0 60938 83700.00000 0 6054729.079 19064714.682 -15836184.916 10 0 60938 84600.00000 0 6138219.792 20874124.862 -13337032.759 10 0 60938 85500.00000 0 6344744.233 22348858.556 -10579172.982 99